QPF
0.00 0.00 0.00 0.00 0.00 0.00 0.00 0.00 0.00 0.00 0.00 0.00 0.00 0.00 0.00 0.00 0.00 0.01 0.00 0.00 0.00 0.00 0.00 0.00 0.01 0.01 0.01 0.01 0.01 0.01 0.02 0.02 0.02 0.01 0.02 0.02 0.02 0.02 0.03 0.02 0.02 0.03 0.03 0.04 0.04 0.06 0.07 0.06 0.08
0.00 0.00 0.00 0.00 0.00 0.00 0.00 0.00 0.00 0.00 0.00 0.00 0.00 0.00 0.00 0.00 0.00 0.00 0.00 0.00 0.00 0.00 0.00 0.00 0.00 0.01 0.01 0.01 0.01 0.01 0.02 0.02 0.02 0.02 0.02 0.02 0.02 0.02 0.02 0.02 0.02 0.02 0.02 0.02 0.04 0.05 0.07 0.07 0.08
0.00 0.00 0.00 0.00 0.00 0.00 0.00 0.00 0.00 0.00 0.00 0.00 0.00 0.00 0.00 0.00 0.00 0.00 0.00 0.00 0.00 0.00 0.00 0.00 0.00 0.00 0.00 0.00 0.01 0.01 0.02 0.02 0.02 0.01 0.01 0.01 0.02 0.02 0.01 0.01 0.01 0.01 0.02 0.03 0.04 0.06 0.07 0.07 0.07
0.00 0.00 0.00 0.00 0.00 0.00 0.00 0.00 0.00 0.00 0.00 0.00 0.00 0.00 0.00 0.00 0.00 0.00 0.00 0.00 0.00 0.00 0.00 0.00 0.00 0.00 0.00 0.00 0.01 0.01 0.02 0.01 0.01 0.01 0.01 0.01 0.01 0.01 0.01 0.01 0.01 0.00 0.01 0.02 0.04 0.06 0.07 0.06 0.05
0.00 0.00 0.00 0.00 0.00 0.00 0.00 0.00 0.00 0.00 0.00 0.00 0.00 0.00 0.00 0.00 0.00 0.00 0.00 0.00 0.00 0.00 0.00 0.00 0.00 0.00 0.00 0.00 0.01 0.01 0.01 0.01 0.01 0.01 0.00 0.00 0.00 0.01 0.01 0.01 0.00 0.00 0.00 0.01 0.02 0.04 0.05 0.04 0.04
0.00 0.00 0.00 0.01 0.01 0.00 0.00 0.00 0.00 0.00 0.00 0.00 0.00 0.00 0.00 0.00 0.00 0.00 0.00 0.00 0.00 0.00 0.00 0.00 0.00 0.00 0.00 0.00 0.01 0.01 0.01 0.01 0.01 0.01 0.00 0.00 0.00 0.00 0.01 0.01 0.00 0.00 0.00 0.00 0.01 0.02 0.04 0.03 0.03
0.00 0.00 0.00 0.01 0.01 0.00 0.00 0.00 0.00 0.00 0.00 0.00 0.00 0.00 0.00 0.00 0.01 0.01 0.00 0.00 0.00 0.00 0.00 0.00 0.00 0.00 0.00 0.00 0.01 0.02 0.02 0.02 0.02 0.01 0.01 0.00 0.00 0.00 0.00 0.00 0.00 0.00 0.00 0.00 0.01 0.01 0.02 0.02 0.02
0.00 0.00 0.00 0.00 0.00 0.00 0.00 0.00 0.01 0.01 0.01 0.00 0.00 0.00 0.00 0.01 0.01 0.01 0.00 0.00 0.00 0.00 0.00 0.00 0.00 0.00 0.01 0.01 0.02 0.04 0.05 0.06 0.05 0.02 0.01 0.01 0.00 0.01 0.01 0.01 0.00 0.00 0.00 0.00 0.00 0.00 0.00 0.01 0.01
0.00 0.00 0.01 0.00 0.01 0.01 0.00 0.01 0.02 0.03 0.02 0.02 0.01 0.00 0.01 0.02 0.03 0.03 0.03 0.02 0.02 0.01 0.00 0.00 0.00 0.01 0.01 0.01 0.02 0.06 0.11 0.12 0.11 0.08 0.03 0.01 0.02 0.02 0.03 0.02 0.00 0.00 0.00 0.00 0.00 0.00 0.00 0.00 0.01
0.00 0.00 0.00 0.00 0.00 0.00 0.00 0.01 0.03 0.02 0.02 0.01 0.01 0.01 0.01 0.04 0.08 0.10 0.10 0.11 0.10 0.08 0.04 0.02 0.02 0.02 0.02 0.01 0.02 0.06 0.11 0.15 0.12 0.14 0.09 0.07 0.05 0.03 0.02 0.02 0.00 0.00 0.00 0.00 0.00 0.00 0.00 0.00 0.00
0.00 0.00 0.00 0.00 0.00 0.00 0.01 0.02 0.02 0.02 0.03 0.02 0.02 0.03 0.05 0.08 0.11 0.12 0.13 0.14 0.16 0.17 0.14 0.08 0.05 0.04 0.04 0.05 0.05 0.08 0.10 0.11 0.11 0.12 0.12 0.13 0.10 0.04 0.01 0.02 0.01 0.01 0.00 0.00 0.00 0.00 0.00 0.00 0.00
0.00 0.00 0.00 0.01 0.01 0.01 0.01 0.01 0.01 0.01 0.01 0.01 0.02 0.04 0.08 0.12 0.14 0.14 0.15 0.15 0.15 0.18 0.22 0.16 0.11 0.11 0.09 0.09 0.08 0.08 0.09 0.08 0.08 0.08 0.09 0.12 0.11 0.06 0.03 0.02 0.01 0.01 0.01 0.00 0.00 0.00 0.00 0.00 0.00
0.00 0.00 0.01 0.01 0.01 0.01 0.01 0.00 0.00 0.00 0.01 0.02 0.04 0.07 0.11 0.14 0.15 0.16 0.16 0.18 0.18 0.20 0.22 0.20 0.16 0.15 0.15 0.15 0.15 0.10 0.11 0.11 0.10 0.10 0.08 0.09 0.09 0.08 0.05 0.02 0.01 0.01 0.00 0.00 0.00 0.00 0.00 0.00 0.00
0.00 0.00 0.00 0.01 0.01 0.01 0.01 0.00 0.00 0.00 0.01 0.02 0.03 0.05 0.07 0.10 0.11 0.13 0.15 0.16 0.16 0.16 0.18 0.17 0.18 0.19 0.18 0.17 0.18 0.16 0.16 0.18 0.17 0.11 0.09 0.08 0.09 0.07 0.07 0.03 0.02 0.01 0.00 0.00 0.00 0.00 0.00 0.00 0.00
0.00 0.00 0.00 0.00 0.00 0.00 0.00 0.00 0.00 0.00 0.01 0.01 0.02 0.02 0.03 0.04 0.05 0.06 0.07 0.09 0.10 0.11 0.12 0.11 0.12 0.16 0.20 0.23 0.27 0.23 0.22 0.24 0.23 0.18 0.17 0.13 0.10 0.08 0.08 0.05 0.03 0.02 0.01 0.00 0.00 0.00 0.00 0.00 0.00
0.00 0.00 0.01 0.00 0.00 0.00 0.00 0.00 0.00 0.00 0.00 0.00 0.00 0.01 0.01 0.01 0.02 0.02 0.02 0.03 0.04 0.05 0.06 0.05 0.06 0.08 0.11 0.18 0.25 0.29 0.31 0.33 0.29 0.27 0.25 0.19 0.15 0.14 0.12 0.08 0.05 0.04 0.04 0.04 0.02 0.01 0.00 0.00 0.00
0.00 0.00 0.00 0.00 0.00 0.00 0.00 0.00 0.00 0.00 0.00 0.00 0.00 0.00 0.00 0.00 0.01 0.01 0.01 0.01 0.02 0.01 0.01 0.01 0.02 0.03 0.05 0.07 0.10 0.16 0.21 0.30 0.33 0.33 0.32 0.26 0.19 0.15 0.15 0.13 0.13 0.14 0.13 0.10 0.05 0.02 0.01 0.00 0.00
0.00 0.00 0.00 0.00 0.00 0.00 0.00 0.00 0.00 0.00 0.00 0.00 0.00 0.00 0.00 0.00 0.01 0.01 0.01 0.01 0.00 0.00 0.00 0.00 0.00 0.00 0.01 0.01 0.03 0.06 0.11 0.18 0.27 0.30 0.28 0.28 0.27 0.23 0.19 0.16 0.17 0.18 0.18 0.15 0.11 0.07 0.04 0.02 0.01
0.00 0.00 0.00 0.00 0.00 0.00 0.00 0.00 0.00 0.00 0.00 0.00 0.00 0.00 0.00 0.00 0.00 0.00 0.00 0.00 0.00 0.00 0.00 0.00 0.00 0.00 0.00 0.00 0.01 0.01 0.04 0.07 0.12 0.19 0.21 0.25 0.27 0.28 0.26 0.20 0.19 0.19 0.19 0.18 0.18 0.15 0.08 0.04 0.02
0.00 0.00 0.00 0.00 0.00 0.00 0.00 0.00 0.00 0.00 0.00 0.00 0.00 0.00 0.00 0.00 0.00 0.00 0.00 0.00 0.00 0.00 0.00 0.00 0.00 0.00 0.00 0.00 0.00 0.01 0.01 0.02 0.03 0.06 0.10 0.15 0.17 0.20 0.19 0.18 0.20 0.22 0.24 0.24 0.23 0.21 0.16 0.09 0.05
0.00 0.00 0.00 0.00 0.00 0.00 0.00 0.00 0.00 0.00 0.00 0.00 0.00 0.00 0.00 0.00 0.00 0.00 0.00 0.00 0.00 0.00 0.00 0.00 0.00 0.00 0.00 0.00 0.00 0.01 0.01 0.01 0.01 0.02 0.04 0.09 0.12 0.15 0.17 0.17 0.23 0.24 0.23 0.20 0.19 0.20 0.22 0.19 0.12
0.00 0.00 0.00 0.00 0.00 0.00 0.00 0.00 0.00 0.00 0.00 0.00 0.00 0.00 0.00 0.00 0.00 0.00 0.00 0.00 0.00 0.00 0.00 0.00 0.00 0.00 0.01 0.01 0.01 0.01 0.01 0.01 0.01 0.02 0.03 0.04 0.07 0.10 0.14 0.18 0.21 0.21 0.20 0.19 0.18 0.20 0.23 0.26 0.22
0.00 0.00 0.00 0.00 0.00 0.00 0.00 0.00 0.00 0.00 0.00 0.00 0.00 0.00 0.00 0.00 0.00 0.00 0.00 0.01 0.01 0.01 0.01 0.01 0.02 0.03 0.03 0.02 0.02 0.02 0.02 0.02 0.02 0.02 0.02 0.03 0.04 0.06 0.10 0.13 0.14 0.16 0.16 0.17 0.18 0.18 0.19 0.22 0.24
0.00 0.00 0.00 0.00 0.00 0.00 0.00 0.00 0.00 0.00 0.00 0.00 0.00 0.00 0.00 0.00 0.01 0.01 0.02 0.03 0.04 0.05 0.05 0.05 0.05 0.07 0.07 0.07 0.06 0.05 0.04 0.03 0.03 0.03 0.03 0.04 0.04 0.04 0.05 0.07 0.08 0.10 0.11 0.14 0.16 0.17 0.18 0.19 0.22
0.00 0.00 0.00 0.00 0.00 0.00 0.00 0.00 0.00 0.00 0.00 0.00 0.00 0.00 0.01 0.01 0.02 0.03 0.04 0.06 0.09 0.09 0.09 0.10 0.10 0.10 0.09 0.09 0.08 0.06 0.05 0.05 0.04 0.05 0.06 0.06 0.05 0.05 0.05 0.06 0.07 0.08 0.08 0.11 0.15 0.15 0.16 0.16 0.18
0.00 0.00 0.00 0.00 0.00 0.00 0.00 0.00 0.00 0.00 0.00 0.00 0.01 0.01 0.01 0.02 0.04 0.06 0.09 0.13 0.16 0.15 0.14 0.17 0.17 0.12 0.14 0.13 0.12 0.11 0.10 0.08 0.06 0.05 0.06 0.06 0.06 0.06 0.06 0.06 0.07 0.07 0.08 0.09 0.11 0.12 0.13 0.14 0.16
0.00 0.00 0.00 0.00 0.00 0.00 0.00 0.00 0.00 0.00 0.00 0.00 0.00 0.01 0.01 0.02 0.04 0.08 0.11 0.13 0.14 0.15 0.17 0.23 0.22 0.17 0.18 0.16 0.13 0.11 0.10 0.09 0.07 0.06 0.05 0.04 0.04 0.04 0.04 0.05 0.06 0.06 0.06 0.07 0.08 0.09 0.10 0.11 0.13
0.00 0.00 0.00 0.00 0.00 0.00 0.00 0.00 0.00 0.00 0.00 0.00 0.00 0.01 0.01 0.03 0.03 0.05 0.08 0.09 0.11 0.14 0.16 0.21 0.21 0.21 0.19 0.17 0.13 0.11 0.10 0.10 0.10 0.08 0.06 0.05 0.05 0.04 0.04 0.04 0.04 0.04 0.05 0.05 0.06 0.07 0.08 0.11 0.14
0.00 0.00 0.00 0.00 0.00 0.00 0.00 0.00 0.00 0.00 0.00 0.01 0.01 0.01 0.01 0.02 0.03 0.02 0.03 0.04 0.05 0.07 0.10 0.11 0.13 0.16 0.16 0.12 0.10 0.08 0.07 0.06 0.07 0.07 0.06 0.05 0.05 0.05 0.04 0.04 0.03 0.04 0.04 0.05 0.06 0.07 0.09 0.11 0.13
0.00 0.00 0.00 0.00 0.00 0.00 0.00 0.00 0.00 0.00 0.00 0.00 0.01 0.01 0.01 0.01 0.01 0.01 0.01 0.01 0.02 0.03 0.05 0.05 0.05 0.08 0.08 0.09 0.08 0.08 0.05 0.05 0.04 0.04 0.05 0.03 0.03 0.02 0.03 0.03 0.04 0.05 0.06 0.06 0.07 0.07 0.07 0.08 0.09
MSLP
1009.85 1010.60 1011.54 1012.55 1013.49 1014.24 1014.74 1014.97 1014.97 1014.82 1014.61 1014.43 1014.34 1014.33 1014.39 1014.46 1014.50 1014.47 1014.39 1014.27 1014.18 1014.16 1014.24 1014.45 1014.75 1015.09 1015.42 1015.69 1015.87 1015.96 1015.98 1015.97 1015.98 1016.04 1016.15 1016.31 1016.49 1016.64 1016.74 1016.78 1016.76 1016.71 1016.65 1016.61 1016.60 1016.62 1016.66 1016.71 1016.73
1010.18 1011.12 1012.19 1013.26 1014.17 1014.82 1015.16 1015.18 1014.97 1014.62 1014.26 1013.99 1013.86 1013.86 1013.96 1014.10 1014.22 1014.27 1014.25 1014.19 1014.14 1014.15 1014.27 1014.50 1014.84 1015.22 1015.59 1015.89 1016.10 1016.21 1016.25 1016.24 1016.24 1016.28 1016.37 1016.49 1016.63 1016.75 1016.83 1016.86 1016.83 1016.79 1016.74 1016.72 1016.74 1016.78 1016.83 1016.87 1016.88
1010.64 1011.71 1012.87 1013.94 1014.77 1015.28 1015.43 1015.26 1014.85 1014.35 1013.89 1013.56 1013.42 1013.45 1013.61 1013.82 1013.99 1014.10 1014.12 1014.09 1014.06 1014.10 1014.24 1014.50 1014.87 1015.29 1015.70 1016.06 1016.31 1016.45 1016.50 1016.51 1016.51 1016.53 1016.60 1016.69 1016.80 1016.89 1016.95 1016.97 1016.95 1016.91 1016.89 1016.89 1016.92 1016.98 1017.04 1017.07 1017.07
1011.17 1012.33 1013.50 1014.52 1015.25 1015.61 1015.58 1015.24 1014.70 1014.10 1013.58 1013.25 1013.13 1013.20 1013.41 1013.66 1013.88 1014.00 1014.03 1014.00 1013.98 1014.01 1014.16 1014.44 1014.84 1015.30 1015.75 1016.15 1016.44 1016.62 1016.71 1016.73 1016.73 1016.75 1016.80 1016.87 1016.96 1017.04 1017.09 1017.10 1017.09 1017.07 1017.07 1017.10 1017.15 1017.22 1017.28 1017.30 1017.28
1011.74 1012.93 1014.06 1014.99 1015.59 1015.81 1015.65 1015.19 1014.58 1013.95 1013.44 1013.14 1013.07 1013.19 1013.43 1013.70 1013.91 1014.02 1014.02 1013.97 1013.91 1013.93 1014.07 1014.35 1014.76 1015.24 1015.72 1016.15 1016.48 1016.69 1016.80 1016.84 1016.86 1016.88 1016.93 1017.00 1017.08 1017.15 1017.20 1017.23 1017.24 1017.25 1017.27 1017.32 1017.39 1017.46 1017.52 1017.53 1017.49
1012.31 1013.46 1014.52 1015.34 1015.82 1015.93 1015.69 1015.20 1014.59 1014.00 1013.56 1013.33 1013.32 1013.48 1013.73 1013.99 1014.16 1014.21 1014.15 1014.03 1013.92 1013.90 1014.00 1014.26 1014.66 1015.13 1015.62 1016.05 1016.39 1016.62 1016.74 1016.81 1016.84 1016.87 1016.93 1017.01 1017.10 1017.19 1017.26 1017.31 1017.34 1017.38 1017.43 1017.50 1017.58 1017.66 1017.71 1017.72 1017.66
1012.86 1013.93 1014.88 1015.59 1015.98 1016.03 1015.79 1015.33 1014.80 1014.32 1013.98 1013.84 1013.89 1014.08 1014.32 1014.53 1014.63 1014.61 1014.46 1014.26 1014.08 1013.99 1014.04 1014.25 1014.59 1015.02 1015.46 1015.87 1016.18 1016.40 1016.53 1016.60 1016.65 1016.71 1016.79 1016.89 1017.01 1017.12 1017.22 1017.29 1017.36 1017.42 1017.49 1017.57 1017.67 1017.75 1017.80 1017.80 1017.73
1013.36 1014.33 1015.18 1015.79 1016.13 1016.18 1016.00 1015.65 1015.25 1014.91 1014.71 1014.66 1014.77 1014.96 1015.16 1015.30 1015.32 1015.20 1014.97 1014.69 1014.44 1014.27 1014.25 1014.37 1014.63 1014.97 1015.33 1015.65 1015.91 1016.09 1016.20 1016.26 1016.32 1016.40 1016.50 1016.64 1016.78 1016.92 1017.05 1017.15 1017.24 1017.32 1017.41 1017.51 1017.61 1017.70 1017.75 1017.75 1017.68
1013.81 1014.68 1015.43 1015.99 1016.32 1016.43 1016.35 1016.16 1015.94 1015.76 1015.69 1015.72 1015.86 1016.03 1016.17 1016.23 1016.16 1015.96 1015.66 1015.32 1015.00 1014.77 1014.66 1014.68 1014.82 1015.02 1015.25 1015.46 1015.62 1015.72 1015.79 1015.84 1015.90 1015.99 1016.12 1016.28 1016.45 1016.61 1016.75 1016.88 1016.98 1017.07 1017.18 1017.28 1017.39 1017.48 1017.54 1017.55 1017.50
1014.21 1014.98 1015.66 1016.21 1016.58 1016.80 1016.87 1016.86 1016.82 1016.80 1016.84 1016.93 1017.05 1017.18 1017.24 1017.22 1017.07 1016.81 1016.46 1016.09 1015.73 1015.44 1015.25 1015.16 1015.16 1015.21 1015.28 1015.34 1015.37 1015.38 1015.38 1015.40 1015.46 1015.56 1015.70 1015.88 1016.06 1016.23 1016.38 1016.50 1016.61 1016.71 1016.81 1016.92 1017.04 1017.14 1017.21 1017.22 1017.19
1014.56 1015.26 1015.91 1016.47 1016.93 1017.28 1017.53 1017.71 1017.84 1017.95 1018.06 1018.16 1018.24 1018.29 1018.26 1018.15 1017.94 1017.65 1017.30 1016.92 1016.56 1016.24 1015.99 1015.79 1015.64 1015.53 1015.42 1015.31 1015.20 1015.10 1015.04 1015.02 1015.06 1015.16 1015.31 1015.49 1015.67 1015.83 1015.98 1016.09 1016.18 1016.28 1016.38 1016.49 1016.61 1016.71 1016.80 1016.83 1016.82
1014.88 1015.54 1016.19 1016.81 1017.37 1017.87 1018.29 1018.64 1018.91 1019.11 1019.24 1019.31 1019.32 1019.26 1019.13 1018.94 1018.69 1018.39 1018.06 1017.72 1017.38 1017.06 1016.76 1016.47 1016.19 1015.91 1015.64 1015.37 1015.13 1014.93 1014.80 1014.74 1014.76 1014.86 1015.00 1015.17 1015.34 1015.48 1015.60 1015.69 1015.77 1015.85 1015.94 1016.05 1016.18 1016.29 1016.39 1016.44 1016.44
1015.22 1015.87 1016.54 1017.22 1017.89 1018.54 1019.11 1019.60 1019.97 1020.21 1020.33 1020.32 1020.22 1020.03 1019.79 1019.52 1019.23 1018.94 1018.65 1018.36 1018.07 1017.77 1017.45 1017.10 1016.72 1016.31 1015.89 1015.49 1015.14 1014.86 1014.67 1014.58 1014.58 1014.67 1014.80 1014.95 1015.09 1015.20 1015.29 1015.35 1015.41 1015.48 1015.57 1015.69 1015.82 1015.94 1016.05 1016.12 1016.14
1015.64 1016.27 1016.97 1017.71 1018.49 1019.25 1019.95 1020.54 1020.96 1021.20 1021.26 1021.14 1020.90 1020.58 1020.22 1019.86 1019.54 1019.26 1019.01 1018.79 1018.56 1018.29 1017.97 1017.58 1017.12 1016.62 1016.11 1015.62 1015.18 1014.85 1014.62 1014.52 1014.51 1014.58 1014.69 1014.81 1014.92 1015.00 1015.05 1015.09 1015.14 1015.21 1015.30 1015.43 1015.58 1015.73 1015.84 1015.92 1015.95
1016.18 1016.79 1017.50 1018.29 1019.14 1019.99 1020.77 1021.41 1021.86 1022.06 1022.03 1021.80 1021.42 1020.95 1020.46 1020.02 1019.65 1019.37 1019.16 1018.98 1018.79 1018.56 1018.24 1017.83 1017.34 1016.79 1016.22 1015.68 1015.21 1014.85 1014.61 1014.50 1014.48 1014.54 1014.62 1014.71 1014.78 1014.83 1014.86 1014.89 1014.94 1015.02 1015.14 1015.30 1015.47 1015.64 1015.78 1015.86 1015.90
1016.86 1017.44 1018.13 1018.94 1019.82 1020.71 1021.54 1022.20 1022.63 1022.79 1022.67 1022.33 1021.81 1021.21 1020.61 1020.07 1019.64 1019.34 1019.13 1018.96 1018.80 1018.58 1018.27 1017.86 1017.35 1016.78 1016.20 1015.65 1015.18 1014.82 1014.58 1014.46 1014.44 1014.47 1014.53 1014.58 1014.62 1014.64 1014.66 1014.69 1014.76 1014.87 1015.04 1015.24 1015.45 1015.65 1015.82 1015.92 1015.96
1017.67 1018.20 1018.85 1019.63 1020.50 1021.40 1022.22 1022.88 1023.29 1023.40 1023.21 1022.76 1022.14 1021.43 1020.72 1020.10 1019.61 1019.25 1019.01 1018.83 1018.65 1018.43 1018.11 1017.70 1017.19 1016.62 1016.05 1015.51 1015.06 1014.72 1014.49 1014.37 1014.33 1014.33 1014.34 1014.36 1014.36 1014.36 1014.38 1014.43 1014.53 1014.70 1014.92 1015.18 1015.45 1015.70 1015.90 1016.03 1016.08
1018.58 1019.02 1019.60 1020.32 1021.15 1022.01 1022.81 1023.44 1023.82 1023.89 1023.65 1023.15 1022.45 1021.67 1020.89 1020.19 1019.62 1019.20 1018.90 1018.66 1018.44 1018.18 1017.84 1017.42 1016.91 1016.36 1015.81 1015.31 1014.89 1014.56 1014.34 1014.20 1014.13 1014.08 1014.04 1014.01 1013.97 1013.95 1013.97 1014.05 1014.20 1014.43 1014.72 1015.05 1015.39 1015.69 1015.94 1016.11 1016.19
1019.49 1019.83 1020.32 1020.95 1021.71 1022.51 1023.26 1023.86 1024.21 1024.26 1024.00 1023.48 1022.77 1021.95 1021.13 1020.37 1019.74 1019.25 1018.87 1018.56 1018.26 1017.94 1017.57 1017.12 1016.61 1016.08 1015.56 1015.09 1014.69 1014.38 1014.14 1013.98 1013.85 1013.74 1013.63 1013.54 1013.45 1013.41 1013.43 1013.53 1013.73 1014.02 1014.38 1014.79 1015.19 1015.57 1015.87 1016.09 1016.22
1020.33 1020.57 1020.95 1021.49 1022.15 1022.87 1023.56 1024.12 1024.45 1024.50 1024.26 1023.76 1023.06 1022.26 1021.43 1020.66 1019.98 1019.42 1018.96 1018.56 1018.19 1017.80 1017.36 1016.89 1016.37 1015.85 1015.35 1014.90 1014.52 1014.21 1013.95 1013.74 1013.54 1013.35 1013.17 1012.99 1012.85 1012.77 1012.78 1012.90 1013.14 1013.48 1013.90 1014.37 1014.84 1015.28 1015.64 1015.93 1016.11
1021.00 1021.15 1021.44 1021.88 1022.44 1023.08 1023.70 1024.21 1024.53 1024.59 1024.38 1023.94 1023.30 1022.56 1021.77 1021.01 1020.31 1019.71 1019.18 1018.70 1018.24 1017.78 1017.29 1016.78 1016.25 1015.73 1015.25 1014.81 1014.44 1014.11 1013.82 1013.54 1013.27 1012.99 1012.72 1012.46 1012.25 1012.12 1012.10 1012.22 1012.47 1012.84 1013.30 1013.81 1014.33 1014.82 1015.25 1015.59 1015.85
1021.49 1021.57 1021.78 1022.13 1022.60 1023.15 1023.70 1024.16 1024.45 1024.53 1024.38 1024.00 1023.45 1022.78 1022.06 1021.35 1020.67 1020.04 1019.47 1018.94 1018.41 1017.89 1017.35 1016.81 1016.27 1015.75 1015.28 1014.85 1014.46 1014.11 1013.78 1013.45 1013.10 1012.74 1012.38 1012.03 1011.75 1011.57 1011.51 1011.59 1011.83 1012.19 1012.66 1013.19 1013.73 1014.25 1014.72 1015.12 1015.45
1021.79 1021.83 1021.99 1022.27 1022.67 1023.13 1023.60 1024.00 1024.27 1024.36 1024.24 1023.94 1023.48 1022.91 1022.27 1021.62 1020.98 1020.37 1019.78 1019.22 1018.65 1018.09 1017.52 1016.95 1016.40 1015.89 1015.42 1014.99 1014.60 1014.23 1013.87 1013.48 1013.07 1012.64 1012.20 1011.79 1011.44 1011.19 1011.08 1011.12 1011.31 1011.64 1012.08 1012.59 1013.12 1013.64 1014.13 1014.58 1014.97
1021.97 1022.00 1022.14 1022.37 1022.70 1023.09 1023.48 1023.82 1024.05 1024.12 1024.03 1023.78 1023.40 1022.91 1022.37 1021.79 1021.21 1020.63 1020.06 1019.49 1018.91 1018.33 1017.75 1017.17 1016.62 1016.12 1015.65 1015.23 1014.83 1014.46 1014.06 1013.65 1013.20 1012.72 1012.23 1011.77 1011.37 1011.06 1010.89 1010.87 1011.01 1011.28 1011.65 1012.10 1012.59 1013.09 1013.57 1014.03 1014.45
1022.10 1022.16 1022.29 1022.50 1022.78 1023.10 1023.41 1023.67 1023.84 1023.88 1023.79 1023.57 1023.24 1022.82 1022.35 1021.85 1021.33 1020.80 1020.26 1019.71 1019.14 1018.57 1017.99 1017.42 1016.89 1016.38 1015.93 1015.51 1015.12 1014.74 1014.34 1013.92 1013.46 1012.96 1012.46 1011.97 1011.54 1011.19 1010.97 1010.89 1010.96 1011.15 1011.44 1011.82 1012.23 1012.67 1013.11 1013.55 1013.98
1022.25 1022.35 1022.50 1022.70 1022.95 1023.20 1023.44 1023.62 1023.71 1023.70 1023.58 1023.36 1023.05 1022.68 1022.26 1021.82 1021.36 1020.88 1020.38 1019.87 1019.33 1018.78 1018.22 1017.67 1017.15 1016.66 1016.22 1015.81 1015.43 1015.05 1014.66 1014.25 1013.80 1013.32 1012.83 1012.34 1011.91 1011.55 1011.30 1011.17 1011.17 1011.27 1011.48 1011.76 1012.08 1012.44 1012.81 1013.20 1013.61
1022.47 1022.63 1022.81 1023.01 1023.23 1023.43 1023.59 1023.69 1023.70 1023.62 1023.46 1023.21 1022.90 1022.54 1022.15 1021.75 1021.33 1020.90 1020.44 1019.97 1019.47 1018.95 1018.43 1017.90 1017.40 1016.93 1016.50 1016.10 1015.72 1015.36 1014.99 1014.60 1014.18 1013.74 1013.28 1012.83 1012.42 1012.08 1011.81 1011.65 1011.59 1011.63 1011.75 1011.93 1012.15 1012.41 1012.70 1013.01 1013.35
1022.77 1022.97 1023.18 1023.39 1023.59 1023.74 1023.84 1023.86 1023.80 1023.66 1023.43 1023.14 1022.81 1022.44 1022.06 1021.67 1021.28 1020.88 1020.46 1020.03 1019.57 1019.10 1018.61 1018.12 1017.64 1017.19 1016.77 1016.37 1016.01 1015.66 1015.30 1014.94 1014.56 1014.17 1013.76 1013.37 1013.00 1012.69 1012.44 1012.27 1012.18 1012.16 1012.20 1012.29 1012.42 1012.57 1012.76 1012.97 1013.23
1023.09 1023.33 1023.57 1023.78 1023.96 1024.07 1024.12 1024.08 1023.96 1023.76 1023.48 1023.15 1022.78 1022.40 1022.01 1021.62 1021.23 1020.85 1020.46 1020.06 1019.64 1019.21 1018.76 1018.31 1017.87 1017.44 1017.03 1016.64 1016.28 1015.94 1015.60 1015.26 1014.92 1014.57 1014.22 1013.89 1013.58 1013.32 1013.10 1012.94 1012.84 1012.78 1012.77 1012.78 1012.82 1012.87 1012.95 1013.06 1013.22
1023.36 1023.63 1023.87 1024.08 1024.24 1024.33 1024.34 1024.26 1024.10 1023.86 1023.55 1023.19 1022.80 1022.39 1021.98 1021.58 1021.19 1020.81 1020.44 1020.07 1019.69 1019.30 1018.90 1018.50 1018.09 1017.69 1017.30 1016.92 1016.56 1016.22 1015.89 1015.57 1015.25 1014.94 1014.65 1014.38 1014.13 1013.91 1013.74 1013.60 1013.50 1013.43 1013.37 1013.32 1013.28 1013.25 1013.22 1013.23 1013.28
Thickness
5844 5846 5845 5835 5824 5808 5794 5801 5812 5809 5814 5821 5822 5817 5811 5806 5798 5791 5805 5815 5814 5809 5802 5794 5791 5789 5787 5785 5784 5782 5780 5778 5776 5774 5772 5771 5769 5768 5766 5765 5764 5764 5763 5763 5763 5762 5762 5762 5762
5850 5847 5840 5833 5813 5790 5789 5807 5809 5812 5817 5823 5821 5817 5811 5806 5808 5805 5808 5811 5811 5807 5802 5797 5791 5789 5787 5785 5784 5782 5780 5779 5777 5775 5773 5772 5770 5768 5767 5766 5765 5764 5763 5763 5762 5762 5762 5761 5761
5851 5847 5834 5824 5805 5793 5792 5807 5812 5817 5822 5821 5815 5816 5810 5803 5807 5808 5811 5811 5809 5805 5802 5796 5790 5788 5786 5785 5783 5782 5781 5779 5777 5776 5774 5772 5771 5769 5768 5767 5765 5764 5763 5763 5762 5762 5761 5760 5760
5848 5840 5834 5817 5796 5803 5806 5812 5817 5815 5819 5821 5817 5807 5809 5811 5812 5814 5812 5811 5808 5804 5800 5795 5789 5787 5786 5784 5783 5782 5780 5779 5778 5776 5775 5773 5771 5770 5769 5768 5766 5765 5764 5763 5762 5761 5761 5760 5759
5847 5834 5815 5802 5798 5807 5816 5821 5820 5814 5812 5815 5815 5803 5800 5809 5815 5814 5811 5810 5807 5804 5800 5795 5788 5786 5785 5783 5782 5781 5780 5778 5777 5776 5774 5773 5772 5770 5769 5768 5767 5766 5765 5764 5763 5762 5761 5760 5759
5835 5829 5803 5791 5796 5808 5817 5822 5819 5813 5811 5813 5811 5803 5798 5808 5809 5809 5810 5807 5806 5803 5799 5795 5787 5785 5783 5782 5781 5780 5779 5778 5776 5775 5774 5773 5771 5770 5769 5768 5767 5766 5765 5764 5763 5763 5761 5760 5760
5828 5816 5798 5795 5793 5799 5808 5820 5814 5810 5806 5807 5811 5801 5798 5804 5806 5808 5806 5804 5803 5800 5798 5796 5792 5786 5782 5781 5780 5779 5778 5777 5775 5774 5773 5772 5771 5769 5768 5767 5767 5766 5765 5764 5764 5763 5762 5761 5760
5835 5818 5798 5796 5792 5792 5807 5813 5810 5807 5801 5809 5810 5797 5793 5799 5804 5804 5802 5800 5799 5798 5796 5796 5794 5791 5788 5784 5780 5778 5777 5776 5775 5774 5772 5771 5770 5769 5768 5767 5766 5765 5765 5764 5764 5763 5762 5762 5761
5835 5811 5793 5793 5793 5792 5804 5802 5803 5808 5802 5799 5798 5795 5798 5801 5800 5796 5793 5792 5791 5791 5793 5793 5792 5790 5787 5786 5783 5779 5777 5775 5774 5773 5772 5771 5773 5773 5770 5769 5766 5765 5764 5763 5763 5763 5763 5762 5762
5824 5801 5792 5798 5802 5793 5791 5789 5790 5792 5783 5780 5783 5787 5792 5792 5790 5786 5783 5782 5783 5785 5788 5790 5789 5788 5785 5784 5783 5780 5779 5777 5776 5776 5775 5774 5776 5776 5773 5769 5766 5764 5764 5763 5763 5762 5762 5764 5768
5814 5796 5795 5797 5800 5797 5786 5777 5777 5776 5759 5757 5762 5770 5776 5777 5776 5774 5773 5774 5776 5779 5781 5783 5784 5784 5783 5781 5780 5779 5779 5777 5776 5776 5775 5774 5774 5773 5773 5772 5768 5767 5765 5767 5764 5764 5769 5770 5771
5801 5793 5795 5791 5793 5788 5781 5772 5758 5751 5743 5752 5757 5760 5763 5762 5761 5761 5761 5763 5766 5768 5770 5774 5776 5778 5778 5778 5778 5777 5777 5777 5776 5775 5775 5773 5772 5773 5775 5773 5773 5771 5768 5768 5769 5769 5770 5771 5772
5795 5784 5783 5780 5777 5772 5766 5756 5746 5736 5741 5746 5748 5748 5748 5749 5749 5751 5753 5754 5755 5756 5759 5762 5765 5768 5770 5771 5771 5773 5773 5774 5774 5772 5772 5772 5770 5771 5773 5773 5771 5770 5770 5768 5767 5769 5771 5769 5772
5788 5782 5776 5773 5768 5760 5750 5743 5735 5725 5733 5735 5737 5737 5738 5739 5740 5742 5744 5744 5745 5746 5749 5752 5756 5758 5760 5762 5764 5766 5766 5767 5768 5769 5769 5770 5768 5768 5768 5770 5770 5769 5769 5768 5767 5768 5767 5767 5768
5787 5773 5764 5760 5760 5754 5750 5724 5712 5717 5724 5724 5725 5726 5728 5729 5731 5732 5733 5735 5737 5738 5741 5742 5746 5749 5751 5753 5755 5757 5759 5760 5761 5763 5764 5765 5765 5765 5765 5766 5768 5767 5766 5766 5766 5767 5766 5765 5765
5778 5767 5750 5742 5746 5744 5739 5702 5701 5710 5713 5712 5714 5717 5717 5719 5722 5723 5725 5726 5728 5729 5731 5733 5736 5738 5741 5744 5746 5750 5752 5753 5755 5756 5757 5759 5760 5760 5760 5761 5763 5763 5763 5763 5763 5762 5761 5762 5762
5762 5752 5742 5731 5732 5732 5721 5690 5693 5701 5703 5702 5704 5707 5708 5710 5712 5713 5715 5716 5717 5718 5720 5723 5726 5728 5731 5735 5739 5742 5746 5748 5749 5750 5751 5751 5752 5754 5754 5756 5758 5759 5758 5758 5759 5758 5758 5758 5757
5743 5743 5733 5722 5716 5715 5701 5685 5687 5691 5691 5692 5693 5696 5697 5699 5701 5704 5704 5705 5706 5708 5711 5713 5715 5718 5721 5725 5730 5734 5738 5741 5743 5744 5746 5746 5747 5748 5748 5750 5752 5753 5753 5752 5752 5752 5751 5752 5752
5739 5735 5725 5710 5707 5700 5689 5681 5680 5682 5682 5681 5683 5685 5687 5688 5692 5694 5694 5696 5697 5698 5699 5702 5704 5707 5709 5712 5716 5721 5726 5730 5734 5738 5740 5742 5743 5743 5745 5746 5748 5749 5749 5748 5748 5746 5744 5744 5747
5732 5724 5712 5699 5698 5693 5681 5674 5676 5675 5673 5673 5674 5676 5678 5679 5681 5683 5684 5686 5685 5686 5687 5690 5692 5693 5695 5698 5703 5707 5713 5720 5725 5730 5734 5737 5739 5740 5742 5743 5744 5744 5744 5744 5743 5740 5737 5737 5739
5718 5713 5705 5693 5685 5685 5676 5667 5669 5670 5671 5669 5668 5669 5670 5668 5669 5671 5673 5672 5673 5674 5675 5676 5677 5679 5682 5686 5690 5695 5701 5708 5715 5720 5726 5731 5734 5736 5738 5740 5741 5742 5742 5741 5739 5737 5733 5730 5731
5704 5699 5695 5689 5684 5676 5672 5667 5661 5661 5660 5659 5659 5660 5659 5660 5659 5659 5660 5661 5662 5662 5663 5664 5664 5666 5668 5672 5676 5681 5686 5693 5702 5710 5717 5722 5727 5730 5734 5736 5737 5738 5738 5738 5737 5735 5733 5729 5725
5697 5693 5691 5688 5683 5675 5670 5668 5657 5656 5648 5648 5650 5651 5652 5651 5650 5649 5650 5650 5651 5651 5652 5652 5653 5654 5657 5660 5665 5670 5676 5684 5693 5700 5707 5714 5719 5723 5727 5730 5732 5732 5733 5734 5733 5732 5731 5729 5725
5693 5690 5688 5685 5682 5667 5658 5658 5644 5644 5638 5640 5644 5645 5646 5645 5644 5642 5643 5643 5643 5643 5643 5644 5644 5646 5648 5651 5656 5660 5666 5673 5681 5689 5697 5704 5710 5715 5720 5723 5726 5727 5728 5729 5729 5728 5728 5727 5725
5695 5689 5681 5676 5671 5660 5654 5649 5637 5639 5639 5637 5638 5640 5641 5640 5638 5636 5636 5635 5635 5636 5637 5637 5637 5639 5641 5644 5648 5652 5658 5664 5671 5678 5685 5693 5699 5704 5710 5715 5718 5720 5722 5723 5723 5723 5723 5723 5721
5686 5687 5680 5676 5672 5657 5649 5644 5639 5641 5641 5641 5640 5639 5639 5638 5635 5633 5631 5630 5630 5631 5632 5631 5632 5633 5635 5638 5641 5646 5651 5656 5662 5669 5675 5682 5688 5694 5700 5705 5709 5711 5713 5715 5716 5716 5716 5717 5716
5687 5682 5679 5677 5668 5660 5652 5646 5643 5643 5640 5638 5637 5636 5636 5636 5635 5632 5631 5630 5628 5629 5628 5628 5628 5628 5630 5632 5636 5641 5646 5650 5655 5660 5666 5673 5679 5685 5690 5695 5698 5700 5703 5705 5706 5706 5707 5709 5709
5682 5677 5678 5673 5664 5660 5649 5643 5639 5636 5633 5634 5634 5634 5634 5634 5635 5634 5632 5630 5629 5628 5627 5627 5627 5626 5627 5629 5632 5636 5639 5644 5648 5652 5657 5663 5669 5674 5680 5685 5688 5690 5693 5695 5696 5696 5698 5699 5700
5678 5673 5671 5669 5664 5657 5650 5643 5643 5637 5634 5633 5634 5635 5635 5634 5634 5635 5634 5634 5632 5631 5630 5629 5628 5628 5628 5630 5631 5634 5636 5639 5643 5645 5649 5654 5660 5666 5670 5674 5678 5680 5682 5684 5685 5686 5688 5688 5689
5676 5670 5670 5668 5659 5656 5651 5644 5648 5643 5639 5637 5637 5637 5638 5637 5637 5638 5638 5637 5636 5634 5633 5632 5631 5630 5629 5630 5631 5632 5633 5636 5638 5640 5643 5648 5652 5657 5661 5665 5668 5670 5672 5674 5676 5677 5678 5679 5679